Weather History for SBTE - August, 2014

Change the Weather History Date:

Friday, August 15, 2014

  Actual Average Record
Temperature  
Mean Temperature 84 °F -  
Max Temperature 98 °F 94 °F 100 °F (2013)
Min Temperature 71 °F 72 °F 69 °F (2001)
Cooling Degree Days 20    
Growing Degree Days 34 (Base 50)    
Moisture  
Dew Point 62 °F    
Average Humidity 48    
Maximum Humidity 88    
Minimum Humidity 18    
Precipitation  
Precipitation 0.00 in - - ()
Sea Level Pressure  
Sea Level Pressure 29.94 in    
Wind  
Wind Speed 3 mph ()    
Max Wind Speed 10 mph    
Max Gust Speed -    
Visibility 10.1 miles    
Events      
Averages and records for this station are not official NWS values.
T = Trace of Precipitation, MM = Missing Value Source: Averaged Metar Reports

Daily Weather History Graph

Daily Weather History Graph

Search for Another Location

Airport or City:

Trip Planner

Search our weather history database for the weather conditions in past years. The results will help you decide how hot, cold, wet, or windy it might be!

Date:

Astronomy

Aug. 15, 2014 Rise Set
Actual Time 5:57 AM BRT 5:54 PM BRT
Civil Twilight 5:36 AM BRT 6:15 PM BRT
Nautical Twilight 5:11 AM BRT 6:40 PM BRT
Astronomical Twilight 4:46 AM BRT 7:04 PM BRT
Moon 10:32 PM BRT (8/15) 9:56 AM BRT (8/15)
Length of Visible Light 12h 39m
Length of Day
11h 56m
Waning Gibbous, 70% of the Moon is Illuminated
Aug 15
Waning Gibbous
Aug 17
Last Quarter
Aug 25
New
Sep 2
First Quarter
Sep 8
Full

Hourly Weather History & Observations

Time (BRT) Temp. Heat Index Dew Point Humidity Pressure Visibility Wind Dir Wind Speed Gust Speed Precip Events Conditions
12:00 AM 78.8 °F - 64.4 °F 61% 29.92 in - NE 4.6 mph - N/A   Clear
1:00 AM 78.8 °F - 64.4 °F 61% 29.92 in - Calm Calm - N/A   Clear
2:00 AM 77.0 °F - 66.2 °F 69% 29.92 in - Calm Calm - N/A   Clear
3:00 AM 75 °F - 68 °F 72% 29.91 in 12 mi Calm Calm - -  
3:00 AM 75.2 °F - 68.0 °F 78% 29.92 in - Calm Calm - N/A   Clear
4:00 AM 73.4 °F - 68.0 °F 83% 29.92 in - Calm Calm - N/A   Clear
5:00 AM 73.4 °F - 68.0 °F 83% 29.92 in - Calm Calm - N/A   Clear
6:00 AM 71.6 °F - 68.0 °F 88% 29.95 in - Calm Calm - N/A   Clear
7:00 AM 75.2 °F - 69.8 °F 83% 29.98 in - Calm Calm - N/A   Clear
8:00 AM 80.6 °F 83.2 °F 68.0 °F 65% 30.01 in - South 3.5 mph - N/A   Clear
9:00 AM 88 °F - 58 °F 26% 30.01 in 12 mi SSE 6.9 mph - -  
9:00 AM 87.8 °F 87.1 °F 59.0 °F 38% 30.01 in - SSE 6.9 mph - N/A   Clear
10:00 AM 87.8 °F 87.1 °F 59.0 °F 38% 30.01 in - SSE 9.2 mph - N/A   Clear
11:00 AM 91.4 °F 89.9 °F 57.2 °F 31% 29.98 in - SE 5.8 mph - N/A   Clear
12:00 PM 95.0 °F 93.7 °F 57.2 °F 28% 29.98 in - SSE 10.4 mph - N/A   Clear
1:00 PM 95.0 °F 93.7 °F 57.2 °F 28% 29.95 in - SSE 9.2 mph - N/A   Clear
2:00 PM 96.8 °F 95.8 °F 57.2 °F 27% 29.92 in - SE 8.1 mph - N/A   Clear
3:00 PM 97 °F - 57 °F 18% 29.90 in 12 mi ESE 6.9 mph - -  
3:00 PM 96.8 °F 95.8 °F 57.2 °F 27% 29.89 in - ESE 6.9 mph - N/A   Clear
4:00 PM 98.6 °F 97.6 °F 57.2 °F 25% 29.89 in - SE 4.6 mph - N/A   Clear
5:00 PM 96.8 °F 95.8 °F 57.2 °F 27% 29.89 in 6.2 mi SSE 4.6 mph - N/A   Partly Cloudy
6:00 PM 96.8 °F 95.1 °F 55.4 °F 25% 29.89 in 6.2 mi SSE 2.3 mph - N/A   Partly Cloudy
7:00 PM 89.6 °F 88.1 °F 57.2 °F 33% 29.89 in - South 2.3 mph - N/A   Clear
8:00 PM 87.8 °F 88.5 °F 62.6 °F 43% 29.92 in - South 3.5 mph - N/A   Clear
9:00 PM 85 °F - 61 °F 34% 29.94 in 12 mi South 5.8 mph - -  
9:00 PM 84.2 °F 84.4 °F 60.8 °F 45% 29.95 in - South 5.8 mph - N/A   Clear
10:00 PM 82.4 °F 82.9 °F 60.8 °F 48% 29.95 in - South 6.9 mph - N/A   Clear
11:00 PM 82.4 °F 82.9 °F 60.8 °F 48% 29.98 in - South 5.8 mph - N/A   Clear